Flag for Falkland Islands Weather past 2 weeks in Stanley, Falkland Islands

Now
30 °F

Passing clouds.


Feels Like: 30 °F
Forecast: 36 / 39 °F
Wind: No wind

Location: Mount Pleasant Airport

Current Time: Jul 5, 2015 at 7:25:51 AM

Latest Report: Jul 5, 2015 at 6:50 AM


Visibility: N/A

Pressure: 29.59 "Hg

Humidity: 86%

Dew point: 27 °F

Location of StanleyLocation

Historic Weather in Stanley — Graph

°F

Stanley temperature yesterday

Maximum temperature yesterday: 37 °F (at 11:50 AM)
Minimum temperature yesterday: 28 °F (at 12:50 AM)
Average temperature yesterday: 32 °F

Past Weeks' High & Low Weather Summary

 TemperatureHumidityPressure
High52 °F (Jun 25, 4:50 PM)100% (Jun 20, 6:50 AM)29.95 "Hg (Jun 20, 6:50 AM)
Low27 °F (Jul 1, 2:50 AM)44% (Jun 25, 4:50 PM)28.82 "Hg (Jun 28, 12:50 PM)
Average37 °F86%29.51 "Hg
* Reported Jun 20 5:50 AM — Jul 5 5:50 AM, Stanley, Weather by CustomWeather, © 2015

Note: Actual official high and low records may vary slightly from our data, if they occured in-between our weather recording intervals... More about our weather records

Advertising

Stanley weather history for previous 24 hours

 ConditionsComfort  
Time TempWeatherWind HumidityBarometerVisibility
5:50 AM
Sun, Jul 5
30 °FClear.No wind86%29.59 "Hg10 mi
4:50 AM30 °FOvercast.No wind86%29.62 "HgN/A
3:50 AM30 °FClear.No wind80%29.65 "Hg10 mi
2:50 AM30 °FClear.No wind80%29.65 "Hg10 mi
1:50 AM32 °FClear.No wind75%29.68 "Hg10 mi
12:50 AM32 °FClear.No wind80%29.68 "Hg10 mi
11:50 PM
Sat, Jul 4
32 °FClear.No wind80%29.68 "Hg10 mi
10:50 PM32 °FPassing clouds.No wind87%29.68 "HgN/A
9:50 PM32 °FPassing clouds.No wind100%29.68 "HgN/A
8:50 PM32 °FPassing clouds.No windN/A29.68 "HgN/A
7:50 PM32 °FSnow showers. Mostly cloudy.No wind100%29.68 "Hg2 mi
6:50 PM32 °FLight snow. Passing clouds.No wind93%29.68 "HgN/A
5:50 PM32 °FPartly cloudy.8 mph100%29.68 "HgN/A
4:50 PM32 °FFog.5 mph100%29.65 "Hg1 mi
3:50 PM34 °FDrizzle. More clouds than sun.6 mph100%29.65 "Hg1 mi
2:50 PM34 °FDrizzle. Mostly cloudy.2 mph100%29.62 "Hg1 mi
1:50 PM34 °FLight snow. Low clouds.10 mph93%29.59 "Hg1 mi
12:50 PM37 °FLight rain. Partly sunny.20 mph93%29.59 "HgN/A
11:50 AM37 °FPartly sunny.20 mph93%29.59 "HgN/A
10:50 AM36 °FMostly cloudy.18 mph100%29.59 "HgN/A
9:50 AM36 °FLight rain. More clouds than sun.20 mph100%29.62 "Hg3 mi
8:50 AM34 °FMostly cloudy.10 mph100%29.62 "HgN/A
7:50 AM30 °FLight snow. Overcast.10 mph100%29.65 "Hg4 mi
Weather by CustomWeather, © 2015

See weather overviewHow to use our weather pages